Time,TemperatureF,DewpointF,PressureIn,WindDirection,WindDirectionDegrees,WindSpeedMPH,WindSpeedGustMPH,Humidity,HourlyPrecipIn,Conditions,Clouds,dailyrainin,SolarRadiationWatts/m^2,SoftwareType,DateUTC
2013-06-19 00:02:00,66.0,65.0,-100.00,WSW,250,3.0,6.0,97,0.00,,,0.19,0.000000,,2013-06-19 04:02:00,
2013-06-19 00:33:00,66.0,64.0,-100.00,West,271,4.0,7.0,92,0.00,,,0.19,0.000000,,2013-06-19 04:33:00,
2013-06-19 00:43:00,66.0,64.0,-100.00,West,271,4.0,7.0,92,0.00,,,0.19,0.000000,,2013-06-19 04:43:00,
2013-06-19 00:53:00,66.0,64.0,-100.00,West,271,4.0,7.0,92,0.00,,,0.19,0.000000,,2013-06-19 04:53:00,
2013-06-19 01:01:00,66.0,64.0,-100.00,West,271,4.0,7.0,92,0.00,,,0.19,0.000000,,2013-06-19 05:01:00,
2013-06-19 01:32:00,65.0,64.0,-100.00,WNW,303,2.0,6.0,96,0.00,,,0.19,0.000000,,2013-06-19 05:32:00,
2013-06-19 01:43:00,65.0,64.0,-100.00,WNW,303,2.0,6.0,96,0.00,,,0.19,0.000000,,2013-06-19 05:43:00,
2013-06-19 01:52:00,65.0,64.0,-100.00,WNW,303,2.0,6.0,96,0.00,,,0.19,0.000000,,2013-06-19 05:52:00,
2013-06-19 02:02:00,65.0,64.0,-100.00,WNW,303,2.0,6.0,96,0.00,,,0.19,0.000000,,2013-06-19 06:02:00,
2013-06-19 02:34:00,64.0,63.0,-100.00,WNW,295,2.0,5.0,96,0.00,,,0.19,0.000000,,2013-06-19 06:34:00,
2013-06-19 02:43:00,64.0,63.0,-100.00,WNW,295,2.0,5.0,96,0.00,,,0.19,0.000000,,2013-06-19 06:43:00,
2013-06-19 02:52:00,64.0,63.0,-100.00,WNW,295,2.0,5.0,96,0.00,,,0.19,0.000000,,2013-06-19 06:52:00,
2013-06-19 03:01:00,64.0,63.0,-100.00,WNW,295,2.0,5.0,96,0.00,,,0.19,0.000000,,2013-06-19 07:01:00,
2013-06-19 03:33:00,64.0,63.0,-100.00,West,266,1.0,3.0,98,0.00,,,0.19,0.000000,,2013-06-19 07:33:00,
2013-06-19 03:43:00,64.0,63.0,-100.00,West,266,1.0,3.0,98,0.00,,,0.19,0.000000,,2013-06-19 07:43:00,
2013-06-19 03:53:00,64.0,63.0,-100.00,West,266,1.0,3.0,98,0.00,,,0.19,0.000000,,2013-06-19 07:53:00,
2013-06-19 04:02:00,64.0,63.0,-100.00,West,266,1.0,3.0,98,0.00,,,0.19,0.000000,,2013-06-19 08:02:00,
2013-06-19 04:34:00,63.0,62.0,-100.00,SSE,162,2.0,3.0,98,0.00,,,0.19,0.000000,,2013-06-19 08:34:00,
2013-06-19 04:43:00,63.0,62.0,-100.00,SSE,162,2.0,3.0,98,0.00,,,0.19,0.000000,,2013-06-19 08:43:00,
2013-06-19 04:54:00,63.0,62.0,-100.00,SSE,162,2.0,3.0,98,0.00,,,0.19,0.000000,,2013-06-19 08:54:00,
2013-06-19 05:02:00,63.0,62.0,-100.00,SSE,162,2.0,3.0,98,0.00,,,0.19,0.000000,,2013-06-19 09:02:00,
2013-06-19 05:34:00,63.0,63.0,-100.00,ESE,122,1.0,2.0,99,0.00,,,0.19,0.000000,,2013-06-19 09:34:00,
2013-06-19 05:44:00,63.0,63.0,-100.00,ESE,122,1.0,2.0,99,0.00,,,0.19,0.000000,,2013-06-19 09:44:00,
2013-06-19 05:53:00,63.0,63.0,-100.00,ESE,122,1.0,2.0,99,0.00,,,0.19,0.000000,,2013-06-19 09:53:00,
2013-06-19 06:02:00,63.0,63.0,-100.00,ESE,122,1.0,2.0,99,0.00,,,0.19,0.000000,,2013-06-19 10:02:00,
2013-06-19 06:33:00,63.0,63.0,-100.00,ESE,106,0.0,2.0,99,0.00,,,0.19,0.000000,,2013-06-19 10:33:00,
2013-06-19 06:43:00,63.0,63.0,-100.00,ESE,106,0.0,2.0,99,0.00,,,0.19,0.000000,,2013-06-19 10:43:00,
2013-06-19 06:53:00,63.0,63.0,-100.00,ESE,106,0.0,2.0,99,0.00,,,0.19,0.000000,,2013-06-19 10:53:00,
2013-06-19 07:02:00,63.0,63.0,-100.00,ESE,106,0.0,2.0,99,0.00,,,0.19,0.000000,,2013-06-19 11:02:00,
2013-06-19 07:33:00,63.0,63.0,-100.00,SSE,158,0.0,3.0,99,0.00,,,0.18,15.000000,,2013-06-19 11:33:00,
2013-06-19 07:43:00,63.0,63.0,-100.00,SSE,158,0.0,3.0,99,0.00,,,0.18,15.000000,,2013-06-19 11:43:00,
2013-06-19 07:54:00,63.0,63.0,-100.00,SSE,158,0.0,3.0,99,0.00,,,0.18,15.000000,,2013-06-19 11:54:00,
2013-06-19 08:02:00,63.0,63.0,-100.00,SSE,158,0.0,3.0,99,0.00,,,0.18,15.000000,,2013-06-19 12:02:00,
2013-06-19 08:34:00,65.0,65.0,-100.00,SSW,194,2.0,4.0,99,0.00,,,0.16,87.000000,,2013-06-19 12:34:00,
2013-06-19 08:44:00,65.0,65.0,-100.00,SSW,194,2.0,4.0,99,0.00,,,0.16,87.000000,,2013-06-19 12:44:00,
2013-06-19 08:53:00,65.0,65.0,-100.00,SSW,194,2.0,4.0,99,0.00,,,0.16,87.000000,,2013-06-19 12:53:00,
2013-06-19 09:02:00,65.0,65.0,-100.00,SSW,194,2.0,4.0,99,0.00,,,0.16,87.000000,,2013-06-19 13:02:00,
2013-06-19 09:43:00,67.0,65.0,-100.00,SSW,197,3.0,5.0,94,0.00,,,0.14,251.000000,,2013-06-19 13:43:00,
2013-06-19 09:54:00,67.0,65.0,-100.00,SSW,197,3.0,5.0,94,0.00,,,0.14,251.000000,,2013-06-19 13:54:00,
2013-06-19 10:02:00,67.0,65.0,-100.00,SSW,197,3.0,5.0,94,0.00,,,0.14,251.000000,,2013-06-19 14:02:00,
2013-06-19 10:34:00,71.0,64.0,-100.00,NW,315,2.0,5.0,79,0.00,,,0.13,353.000000,,2013-06-19 14:34:00,
2013-06-19 10:44:00,71.0,64.0,-100.00,NW,315,2.0,5.0,79,0.00,,,0.13,353.000000,,2013-06-19 14:44:00,
2013-06-19 10:53:00,71.0,64.0,-100.00,NW,315,2.0,5.0,79,0.00,,,0.13,353.000000,,2013-06-19 14:53:00,
2013-06-19 11:02:00,71.0,64.0,-100.00,NW,315,2.0,5.0,79,0.00,,,0.13,353.000000,,2013-06-19 15:02:00,
2013-06-19 11:33:00,73.0,64.0,-100.00,SSE,165,4.0,7.0,73,0.00,,,0.13,468.000000,,2013-06-19 15:33:00,
2013-06-19 11:43:00,73.0,64.0,-100.00,SSE,165,4.0,7.0,73,0.00,,,0.13,468.000000,,2013-06-19 15:43:00,
2013-06-19 11:53:00,73.0,64.0,-100.00,SSE,165,4.0,7.0,73,0.00,,,0.13,468.000000,,2013-06-19 15:53:00,
2013-06-19 12:01:00,73.0,64.0,-100.00,SSE,165,4.0,7.0,73,0.00,,,0.13,468.000000,,2013-06-19 16:01:00,
2013-06-19 12:34:00,73.0,63.0,-100.00,South,175,4.0,9.0,70,0.00,,,0.13,458.000000,,2013-06-19 16:34:00,
2013-06-19 12:43:00,73.0,63.0,-100.00,South,175,4.0,9.0,70,0.00,,,0.13,458.000000,,2013-06-19 16:43:00,
2013-06-19 12:53:00,73.0,63.0,-100.00,South,175,4.0,9.0,70,0.00,,,0.13,458.000000,,2013-06-19 16:53:00,
2013-06-19 13:02:00,73.0,63.0,-100.00,South,175,4.0,9.0,70,0.00,,,0.13,458.000000,,2013-06-19 17:02:00,
2013-06-19 13:34:00,72.0,63.0,-100.00,SSE,162,5.0,7.0,74,0.00,,,0.13,266.000000,,2013-06-19 17:34:00,
2013-06-19 13:43:00,72.0,63.0,-100.00,SSE,162,5.0,7.0,74,0.00,,,0.13,266.000000,,2013-06-19 17:43:00,
2013-06-19 13:53:00,72.0,63.0,-100.00,SSE,162,5.0,7.0,74,0.00,,,0.13,266.000000,,2013-06-19 17:53:00,
2013-06-19 14:02:00,72.0,63.0,-100.00,SSE,162,5.0,7.0,74,0.00,,,0.13,266.000000,,2013-06-19 18:02:00,
2013-06-19 14:33:00,76.0,65.0,-100.00,West,281,3.0,6.0,69,0.00,,,0.06,543.000000,,2013-06-19 18:33:00,
2013-06-19 14:44:00,76.0,65.0,-100.00,West,281,3.0,6.0,69,0.00,,,0.06,543.000000,,2013-06-19 18:44:00,
2013-06-19 14:53:00,76.0,65.0,-100.00,West,281,3.0,6.0,69,0.00,,,0.06,543.000000,,2013-06-19 18:53:00,
2013-06-19 15:01:00,76.0,65.0,-100.00,West,281,3.0,6.0,69,0.00,,,0.06,543.000000,,2013-06-19 19:01:00,
2013-06-19 15:32:00,78.0,63.0,-100.00,NW,324,4.0,7.0,61,0.00,,,0.05,678.000000,,2013-06-19 19:32:00,
2013-06-19 15:43:00,78.0,63.0,-100.00,NW,324,4.0,7.0,61,0.00,,,0.05,678.000000,,2013-06-19 19:43:00,
2013-06-19 15:53:00,78.0,63.0,-100.00,NW,324,4.0,7.0,61,0.00,,,0.05,678.000000,,2013-06-19 19:53:00,
2013-06-19 16:02:00,78.0,63.0,-100.00,NW,324,4.0,7.0,61,0.00,,,0.05,678.000000,,2013-06-19 20:02:00,
2013-06-19 16:33:00,77.0,61.0,-100.00,North,355,4.0,10.0,57,0.00,,,0.05,413.000000,,2013-06-19 20:33:00,
2013-06-19 16:43:00,77.0,61.0,-100.00,North,355,4.0,10.0,57,0.00,,,0.05,413.000000,,2013-06-19 20:43:00,
2013-06-19 16:52:00,77.0,61.0,-100.00,North,355,4.0,10.0,57,0.00,,,0.05,413.000000,,2013-06-19 20:52:00,
2013-06-19 17:02:00,77.0,61.0,-100.00,North,355,4.0,10.0,57,0.00,,,0.05,413.000000,,2013-06-19 21:02:00,
2013-06-19 17:44:00,80.0,62.0,-100.00,NNW,327,5.0,9.0,54,0.00,,,0.02,195.000000,,2013-06-19 21:44:00,
2013-06-19 17:52:00,80.0,62.0,-100.00,NNW,327,5.0,9.0,54,0.00,,,0.02,195.000000,,2013-06-19 21:52:00,
2013-06-19 18:02:00,80.0,62.0,-100.00,NNW,327,5.0,9.0,54,0.00,,,0.02,195.000000,,2013-06-19 22:02:00,
2013-06-19 18:34:00,80.0,63.0,-100.00,North,2,2.0,10.0,56,0.00,,,0.02,505.000000,,2013-06-19 22:34:00,
2013-06-19 18:43:00,80.0,63.0,-100.00,North,2,2.0,10.0,56,0.00,,,0.02,505.000000,,2013-06-19 22:43:00,
2013-06-19 18:53:00,80.0,63.0,-100.00,North,2,2.0,10.0,56,0.00,,,0.02,505.000000,,2013-06-19 22:53:00,
2013-06-19 19:02:00,80.0,63.0,-100.00,North,2,2.0,10.0,56,0.00,,,0.02,505.000000,,2013-06-19 23:02:00,
2013-06-19 19:34:00,78.0,62.0,-100.00,NW,323,1.0,7.0,57,0.00,,,0.00,196.000000,,2013-06-19 23:34:00,
2013-06-19 19:43:00,78.0,62.0,-100.00,NW,323,1.0,7.0,57,0.00,,,0.00,196.000000,,2013-06-19 23:43:00,
2013-06-19 19:52:00,78.0,62.0,-100.00,NW,323,1.0,7.0,57,0.00,,,0.00,196.000000,,2013-06-19 23:52:00,
2013-06-19 20:01:00,78.0,62.0,-100.00,NW,323,1.0,7.0,57,0.00,,,0.00,196.000000,,2013-06-20 00:01:00,
2013-06-19 20:34:00,73.0,65.0,-100.00,SSE,161,3.0,9.0,75,0.00,,,0.00,189.000000,,2013-06-20 00:34:00,
2013-06-19 20:44:00,73.0,65.0,-100.00,SSE,161,3.0,9.0,75,0.00,,,0.00,189.000000,,2013-06-20 00:44:00,
2013-06-19 20:52:00,73.0,65.0,-100.00,SSE,161,3.0,9.0,75,0.00,,,0.00,189.000000,,2013-06-20 00:52:00,
2013-06-19 21:02:00,73.0,65.0,-100.00,SSE,161,3.0,9.0,75,0.00,,,0.00,189.000000,,2013-06-20 01:02:00,
2013-06-19 21:34:00,71.0,65.0,-100.00,SE,132,4.0,9.0,81,0.00,,,0.00,23.000000,,2013-06-20 01:34:00,
2013-06-19 21:44:00,71.0,65.0,-100.00,SE,132,4.0,9.0,81,0.00,,,0.00,23.000000,,2013-06-20 01:44:00,
2013-06-19 21:53:00,71.0,65.0,-100.00,SE,132,4.0,9.0,81,0.00,,,0.00,23.000000,,2013-06-20 01:53:00,
2013-06-19 22:02:00,71.0,65.0,-100.00,SE,132,4.0,9.0,81,0.00,,,0.00,23.000000,,2013-06-20 02:02:00,
2013-06-19 22:34:00,69.0,65.0,-100.00,NW,308,2.0,6.0,86,0.00,,,0.00,0.000000,,2013-06-20 02:34:00,
2013-06-19 22:43:00,69.0,65.0,-100.00,NW,308,2.0,6.0,86,0.00,,,0.00,0.000000,,2013-06-20 02:43:00,
2013-06-19 22:52:00,69.0,65.0,-100.00,NW,308,2.0,6.0,86,0.00,,,0.00,0.000000,,2013-06-20 02:52:00,
2013-06-19 23:02:00,69.0,65.0,-100.00,NW,308,2.0,6.0,86,0.00,,,0.00,0.000000,,2013-06-20 03:02:00,
2013-06-19 23:33:00,67.0,65.0,-100.00,NNE,17,0.0,4.0,93,0.00,,,0.00,0.000000,,2013-06-20 03:33:00,
2013-06-19 23:43:00,67.0,65.0,-100.00,NNE,17,0.0,4.0,93,0.00,,,0.00,0.000000,,2013-06-20 03:43:00,
2013-06-19 23:54:00,67.0,65.0,-100.00,NNE,17,0.0,4.0,93,0.00,,,0.00,0.000000,,2013-06-20 03:54:00,